Time,TemperatureF,DewpointF,PressureIn,WindDirection,WindDirectionDegrees,WindSpeedMPH,WindSpeedGustMPH,Humidity,HourlyPrecipIn,Conditions,Clouds,dailyrainin,SoftwareType,DateUTC
2013-08-17 11:11:00,65.8,56.6,29.77,NNE,17,0.0,0.0,72,0.00,,,0.00,VWS V14.00,2013-08-17 15:11:00,
2013-08-17 11:16:00,66.0,56.7,29.77,NNW,343,0.0,0.0,72,0.00,,,0.00,VWS V14.00,2013-08-17 15:16:00,
2013-08-17 11:21:00,66.2,56.9,29.77,NE,40,0.0,0.0,72,0.00,,,0.00,VWS V14.00,2013-08-17 15:21:00,
2013-08-17 11:26:00,66.2,57.3,29.77,North,357,0.0,0.0,73,0.00,,,0.00,VWS V14.00,2013-08-17 15:26:00,
2013-08-17 11:31:00,66.2,57.3,29.77,NE,34,0.0,2.2,73,0.00,,,0.00,VWS V14.00,2013-08-17 15:31:00,
2013-08-17 12:20:00,67.1,58.9,29.77,NNW,343,0.0,0.0,75,0.00,,,0.00,VWS V14.00,2013-08-17 16:20:00,
2013-08-17 12:25:00,67.3,59.1,29.77,ENE,57,0.0,0.0,75,0.00,,,0.00,VWS V14.00,2013-08-17 16:25:00,
2013-08-17 12:30:00,67.5,59.3,29.77,North,357,0.0,0.0,75,0.00,,,0.00,VWS V14.00,2013-08-17 16:30:00,
2013-08-17 12:35:00,67.5,59.3,29.77,NNE,22,0.0,0.0,75,0.00,,,0.00,VWS V14.00,2013-08-17 16:35:00,
2013-08-17 12:40:00,67.6,59.4,29.77,ENE,65,0.0,0.0,75,0.00,,,0.00,VWS V14.00,2013-08-17 16:40:00,
2013-08-17 12:45:00,67.8,59.6,29.77,North,357,0.0,0.0,75,0.00,,,0.00,VWS V14.00,2013-08-17 16:45:00,
2013-08-17 12:50:00,68.0,59.4,29.77,ENE,69,0.0,0.0,74,0.00,,,0.00,VWS V14.00,2013-08-17 16:50:00,
2013-08-17 12:55:00,68.0,59.4,29.77,North,353,0.0,0.0,74,0.00,,,0.00,VWS V14.00,2013-08-17 16:55:00,
2013-08-17 13:00:00,68.2,59.6,29.77,North,2,0.0,0.0,74,0.00,,,0.00,VWS V14.00,2013-08-17 17:00:00,
2013-08-17 13:05:00,68.4,59.8,29.77,NNW,330,0.0,0.0,74,0.00,,,0.00,VWS V14.00,2013-08-17 17:05:00,
2013-08-17 13:10:00,68.4,59.8,29.77,South,191,0.0,0.0,74,0.00,,,0.00,VWS V14.00,2013-08-17 17:10:00,
2013-08-17 13:15:00,68.5,59.9,29.77,NNE,33,0.0,0.0,74,0.00,,,0.00,VWS V14.00,2013-08-17 17:15:00,
2013-08-17 13:20:00,68.5,59.9,29.77,SE,139,0.0,0.0,74,0.00,,,0.00,VWS V14.00,2013-08-17 17:20:00,
2013-08-17 13:25:00,68.7,59.7,29.77,NNW,342,0.0,0.0,73,0.00,,,0.00,VWS V14.00,2013-08-17 17:25:00,
2013-08-17 13:30:00,68.7,59.7,29.77,ENE,70,0.0,2.7,73,0.00,,,0.00,VWS V14.00,2013-08-17 17:30:00,
2013-08-17 13:35:00,68.9,59.9,29.77,NNE,14,0.0,0.0,73,0.00,,,0.00,VWS V14.00,2013-08-17 17:35:00,
2013-08-17 13:40:00,68.9,59.9,29.77,NNE,16,0.0,0.0,73,0.00,,,0.00,VWS V14.00,2013-08-17 17:40:00,
2013-08-17 13:45:00,69.1,60.1,29.77,SSE,163,0.0,0.0,73,0.00,,,0.00,VWS V14.00,2013-08-17 17:45:00,
2013-08-17 13:59:00,69.3,60.2,29.77,North,353,0.0,0.0,73,0.00,,,0.00,VWS V14.00,2013-08-17 17:59:00,
2013-08-17 14:04:00,69.3,60.6,29.77,SE,145,0.0,0.0,74,0.00,,,0.00,VWS V14.00,2013-08-17 18:04:00,
2013-08-17 14:09:00,69.4,60.8,29.77,NE,54,0.0,0.0,74,0.00,,,0.00,VWS V14.00,2013-08-17 18:09:00,
2013-08-17 14:14:00,69.4,60.8,29.77,NNW,346,0.0,0.0,74,0.00,,,0.00,VWS V14.00,2013-08-17 18:14:00,
2013-08-17 14:19:00,69.6,61.3,29.77,ESE,109,0.0,0.0,75,0.00,,,0.00,VWS V14.00,2013-08-17 18:19:00,
2013-08-17 14:24:00,69.6,61.3,29.74,NW,321,0.0,2.2,75,0.00,,,0.00,VWS V14.00,2013-08-17 18:24:00,
2013-08-17 14:29:00,69.8,61.5,29.74,NNW,348,0.0,0.0,75,0.00,,,0.00,VWS V14.00,2013-08-17 18:29:00,
2013-08-17 14:34:00,69.8,61.5,29.74,ESE,117,0.0,0.0,75,0.00,,,0.00,VWS V14.00,2013-08-17 18:34:00,
2013-08-17 14:39:00,70.0,61.7,29.74,ENE,69,0.0,3.6,75,0.00,,,0.00,VWS V14.00,2013-08-17 18:39:00,
2013-08-17 14:44:00,70.0,61.7,29.74,NNW,334,0.0,0.0,75,0.00,,,0.00,VWS V14.00,2013-08-17 18:44:00,
2013-08-17 14:49:00,70.0,61.7,29.74,NNE,26,2.7,3.6,75,0.00,,,0.00,VWS V14.00,2013-08-17 18:49:00,
2013-08-17 14:54:00,70.0,61.7,29.74,NNW,345,0.0,0.0,75,0.00,,,0.00,VWS V14.00,2013-08-17 18:54:00,
2013-08-17 14:59:00,70.2,61.9,29.74,ENE,57,0.0,2.2,75,0.00,,,0.00,VWS V14.00,2013-08-17 18:59:00,
2013-08-17 15:04:00,70.2,62.2,29.74,ESE,113,0.0,0.0,76,0.00,,,0.00,VWS V14.00,2013-08-17 19:04:00,
2013-08-17 15:09:00,70.3,62.4,29.74,ENE,69,0.0,0.0,76,0.00,,,0.00,VWS V14.00,2013-08-17 19:09:00,
2013-08-17 15:14:00,70.3,62.4,29.74,ENE,62,0.0,0.0,76,0.00,,,0.00,VWS V14.00,2013-08-17 19:14:00,
2013-08-17 15:19:00,70.3,62.8,29.74,ENE,62,0.0,0.0,77,0.00,,,0.00,VWS V14.00,2013-08-17 19:19:00,
2013-08-17 15:24:00,70.3,62.8,29.74,ENE,62,0.0,0.0,77,0.00,,,0.00,VWS V14.00,2013-08-17 19:24:00,
2013-08-17 15:29:00,70.5,63.0,29.74,NNW,344,0.0,0.0,77,0.00,,,0.00,VWS V14.00,2013-08-17 19:29:00,
2013-08-17 15:34:00,70.5,63.0,29.74,North,0,0.0,0.0,77,0.00,,,0.00,VWS V14.00,2013-08-17 19:34:00,
2013-08-17 15:39:00,70.5,63.0,29.74,NNW,341,0.0,0.0,77,0.00,,,0.00,VWS V14.00,2013-08-17 19:39:00,
2013-08-17 15:44:00,70.5,63.0,29.74,NW,317,2.2,2.2,77,0.00,,,0.00,VWS V14.00,2013-08-17 19:44:00,
2013-08-17 15:49:00,70.5,63.3,29.74,NE,35,0.0,0.0,78,0.00,,,0.00,VWS V14.00,2013-08-17 19:49:00,
2013-08-17 15:54:00,70.7,63.5,29.74,NE,35,0.0,0.0,78,0.00,,,0.00,VWS V14.00,2013-08-17 19:54:00,
2013-08-17 15:59:00,70.7,63.5,29.74,NE,36,0.0,0.0,78,0.00,,,0.00,VWS V14.00,2013-08-17 19:59:00,
2013-08-17 16:04:00,70.7,63.5,29.74,NE,49,0.0,0.0,78,0.00,,,0.00,VWS V14.00,2013-08-17 20:04:00,
2013-08-17 16:09:00,70.9,64.1,29.74,NE,45,0.0,0.0,79,0.00,,,0.00,VWS V14.00,2013-08-17 20:09:00,
2013-08-17 16:14:00,70.9,64.1,29.71,ESE,112,0.0,0.0,79,0.00,,,0.00,VWS V14.00,2013-08-17 20:14:00,
2013-08-17 16:19:00,70.9,64.1,29.71,NE,48,0.0,0.0,79,0.04,,,0.04,VWS V14.00,2013-08-17 20:19:00,
2013-08-17 16:24:00,70.9,64.1,29.71,WSW,242,0.0,0.0,79,0.04,,,0.04,VWS V14.00,2013-08-17 20:24:00,
2013-08-17 16:29:00,70.9,64.1,29.71,ENE,72,0.0,0.0,79,0.04,,,0.04,VWS V14.00,2013-08-17 20:29:00,
2013-08-17 16:34:00,70.9,64.1,29.71,NE,50,0.0,0.0,79,0.04,,,0.04,VWS V14.00,2013-08-17 20:34:00,
2013-08-17 16:39:00,70.9,64.1,29.71,ENE,74,0.0,0.0,79,0.04,,,0.04,VWS V14.00,2013-08-17 20:39:00,
2013-08-17 16:44:00,70.9,64.1,29.71,East,99,0.0,0.0,79,0.04,,,0.04,VWS V14.00,2013-08-17 20:44:00,
2013-08-17 16:49:00,70.7,63.9,29.71,ENE,68,5.4,5.4,79,0.04,,,0.04,VWS V14.00,2013-08-17 20:49:00,
2013-08-17 16:54:00,70.5,63.7,29.71,East,79,0.0,0.0,79,0.04,,,0.04,VWS V14.00,2013-08-17 20:54:00,
2013-08-17 16:59:00,70.5,63.7,29.71,WNW,303,3.6,3.6,79,0.04,,,0.04,VWS V14.00,2013-08-17 20:59:00,
2013-08-17 17:04:00,70.5,63.7,29.71,NE,45,2.7,2.7,79,0.04,,,0.04,VWS V14.00,2013-08-17 21:04:00,
2013-08-17 17:09:00,70.5,63.7,29.71,NNW,348,4.0,4.0,79,0.04,,,0.04,VWS V14.00,2013-08-17 21:09:00,
2013-08-17 17:14:00,70.3,63.5,29.71,South,175,0.0,0.0,79,0.04,,,0.04,VWS V14.00,2013-08-17 21:14:00,
2013-08-17 17:19:00,70.5,63.7,29.71,ENE,75,0.0,0.0,79,0.00,,,0.04,VWS V14.00,2013-08-17 21:19:00,
2013-08-17 17:24:00,70.5,63.7,29.71,ENE,59,0.0,0.0,79,0.00,,,0.04,VWS V14.00,2013-08-17 21:24:00,
2013-08-17 17:29:00,70.3,63.5,29.71,NE,42,0.0,0.0,79,0.00,,,0.04,VWS V14.00,2013-08-17 21:29:00,
2013-08-17 17:34:00,70.3,63.5,29.71,NE,51,0.0,0.0,79,0.00,,,0.04,VWS V14.00,2013-08-17 21:34:00,
2013-08-17 17:39:00,70.3,63.9,29.71,NNE,32,0.0,0.0,80,0.00,,,0.04,VWS V14.00,2013-08-17 21:39:00,
2013-08-17 17:44:00,70.3,63.9,29.74,North,6,0.0,0.0,80,0.00,,,0.04,VWS V14.00,2013-08-17 21:44:00,
2013-08-17 17:49:00,70.3,63.9,29.74,NE,53,0.0,0.0,80,0.00,,,0.04,VWS V14.00,2013-08-17 21:49:00,
2013-08-17 17:54:00,70.2,63.7,29.74,NNE,24,0.0,0.0,80,0.00,,,0.04,VWS V14.00,2013-08-17 21:54:00,
2013-08-17 17:59:00,70.2,63.7,29.71,NE,39,0.0,0.0,80,0.00,,,0.04,VWS V14.00,2013-08-17 21:59:00,
2013-08-17 18:04:00,70.2,63.7,29.71,NNW,329,0.0,0.0,80,0.00,,,0.04,VWS V14.00,2013-08-17 22:04:00,
2013-08-17 18:09:00,70.2,63.7,29.74,East,79,3.6,3.6,80,0.00,,,0.04,VWS V14.00,2013-08-17 22:09:00,
2013-08-17 18:14:00,70.0,63.5,29.74,ESE,122,0.0,0.0,80,0.00,,,0.04,VWS V14.00,2013-08-17 22:14:00,
2013-08-17 18:19:00,70.0,63.5,29.74,NNE,27,0.0,0.0,80,0.00,,,0.04,VWS V14.00,2013-08-17 22:19:00,
2013-08-17 18:24:00,69.8,63.4,29.74,ENE,72,0.0,0.0,80,0.00,,,0.04,VWS V14.00,2013-08-17 22:24:00,
2013-08-17 18:29:00,69.8,63.4,29.74,East,91,0.0,0.0,80,0.00,,,0.04,VWS V14.00,2013-08-17 22:29:00,
2013-08-17 18:34:00,69.6,63.5,29.74,North,353,0.0,0.0,81,0.00,,,0.04,VWS V14.00,2013-08-17 22:34:00,
2013-08-17 18:39:00,69.6,63.5,29.74,NE,40,0.0,0.0,81,0.00,,,0.04,VWS V14.00,2013-08-17 22:39:00,
2013-08-17 18:44:00,69.6,63.5,29.74,SE,124,0.0,0.0,81,0.00,,,0.04,VWS V14.00,2013-08-17 22:44:00,
2013-08-17 18:49:00,69.4,63.4,29.74,NE,55,0.0,0.0,81,0.00,,,0.04,VWS V14.00,2013-08-17 22:49:00,
2013-08-17 18:54:00,69.4,63.4,29.74,NE,42,0.0,0.0,81,0.00,,,0.04,VWS V14.00,2013-08-17 22:54:00,
2013-08-17 18:59:00,69.3,63.2,29.74,NE,45,0.0,0.0,81,0.00,,,0.04,VWS V14.00,2013-08-17 22:59:00,
2013-08-17 19:04:00,69.3,63.2,29.74,NNE,12,0.0,0.0,81,0.00,,,0.04,VWS V14.00,2013-08-17 23:04:00,
2013-08-17 19:09:00,69.3,63.2,29.74,NNW,332,0.0,0.0,81,0.00,,,0.04,VWS V14.00,2013-08-17 23:09:00,
2013-08-17 19:14:00,69.1,63.0,29.74,North,9,0.0,0.0,81,0.00,,,0.04,VWS V14.00,2013-08-17 23:14:00,
2013-08-17 19:19:00,69.1,63.0,29.74,ENE,68,0.0,0.0,81,0.00,,,0.04,VWS V14.00,2013-08-17 23:19:00,
2013-08-17 19:24:00,68.9,62.8,29.74,ENE,68,0.0,0.0,81,0.00,,,0.04,VWS V14.00,2013-08-17 23:24:00,
2013-08-17 19:29:00,68.9,62.8,29.74,NE,51,0.0,0.0,81,0.00,,,0.04,VWS V14.00,2013-08-17 23:29:00,
2013-08-17 19:34:00,68.9,62.8,29.74,NE,42,0.0,0.0,81,0.00,,,0.04,VWS V14.00,2013-08-17 23:34:00,
2013-08-17 19:39:00,68.7,62.7,29.74,NE,35,0.0,0.0,81,0.00,,,0.04,VWS V14.00,2013-08-17 23:39:00,
2013-08-17 19:44:00,68.7,62.7,29.74,NNE,31,0.0,0.0,81,0.00,,,0.04,VWS V14.00,2013-08-17 23:44:00,
2013-08-17 19:49:00,68.7,62.7,29.74,NE,52,0.0,0.0,81,0.00,,,0.04,VWS V14.00,2013-08-17 23:49:00,
2013-08-17 19:54:00,68.7,62.7,29.74,NE,55,0.0,0.0,81,0.00,,,0.04,VWS V14.00,2013-08-17 23:54:00,
2013-08-17 19:59:00,68.5,62.5,29.74,NNE,30,0.0,0.0,81,0.00,,,0.04,VWS V14.00,2013-08-17 23:59:00,
2013-08-17 20:04:00,68.5,62.5,29.74,NE,39,0.0,0.0,81,0.00,,,0.04,VWS V14.00,2013-08-18 00:04:00,
2013-08-17 20:09:00,68.5,62.5,29.74,North,6,0.0,0.0,81,0.00,,,0.04,VWS V14.00,2013-08-18 00:09:00,
2013-08-17 20:14:00,68.5,62.5,29.74,NE,42,0.0,3.1,81,0.00,,,0.04,VWS V14.00,2013-08-18 00:14:00,
2013-08-17 20:19:00,68.5,62.5,29.74,NE,42,0.0,0.0,81,0.00,,,0.04,VWS V14.00,2013-08-18 00:19:00,
2013-08-17 20:23:00,68.5,62.5,29.74,NNW,335,0.0,0.0,81,0.00,,,0.04,VWS V14.00,2013-08-18 00:23:00,
2013-08-17 20:28:00,68.4,62.3,29.74,NNE,26,0.0,0.0,81,0.08,,,0.12,VWS V14.00,2013-08-18 00:28:00,
2013-08-17 20:34:00,68.4,62.3,29.74,NNE,26,0.0,0.0,81,0.08,,,0.12,VWS V14.00,2013-08-18 00:34:00,
2013-08-17 20:38:00,68.4,62.7,29.74,NE,41,0.0,0.0,82,0.08,,,0.12,VWS V14.00,2013-08-18 00:38:00,
2013-08-17 20:43:00,68.4,62.7,29.74,ENE,72,0.0,0.0,82,0.08,,,0.12,VWS V14.00,2013-08-18 00:43:00,
2013-08-17 20:48:00,68.4,62.7,29.74,ENE,64,0.0,0.0,82,0.08,,,0.12,VWS V14.00,2013-08-18 00:48:00,
2013-08-17 20:53:00,68.4,62.7,29.74,NNE,21,0.0,0.0,82,0.08,,,0.12,VWS V14.00,2013-08-18 00:53:00,
2013-08-17 20:58:00,68.4,62.7,29.74,NNE,24,0.0,0.0,82,0.08,,,0.12,VWS V14.00,2013-08-18 00:58:00,
2013-08-17 21:03:00,68.4,62.7,29.74,NE,44,0.0,0.0,82,0.08,,,0.12,VWS V14.00,2013-08-18 01:03:00,
2013-08-17 21:08:00,68.2,62.5,29.74,East,100,0.0,0.0,82,0.08,,,0.12,VWS V14.00,2013-08-18 01:08:00,
2013-08-17 21:13:00,68.2,62.5,29.74,East,100,0.0,0.0,82,0.08,,,0.12,VWS V14.00,2013-08-18 01:13:00,
2013-08-17 21:18:00,68.2,62.5,29.74,North,349,0.0,0.0,82,0.08,,,0.12,VWS V14.00,2013-08-18 01:18:00,
2013-08-17 21:23:00,68.2,62.5,29.74,NE,55,0.0,0.0,82,0.08,,,0.12,VWS V14.00,2013-08-18 01:23:00,
2013-08-17 21:28:00,68.0,62.3,29.74,ENE,65,0.0,0.0,82,0.00,,,0.12,VWS V14.00,2013-08-18 01:28:00,
2013-08-17 21:33:00,68.0,62.7,29.74,ESE,112,0.0,0.0,83,0.00,,,0.12,VWS V14.00,2013-08-18 01:33:00,
2013-08-17 21:38:00,68.0,62.7,29.74,SE,136,0.0,0.0,83,0.00,,,0.12,VWS V14.00,2013-08-18 01:38:00,
2013-08-17 21:43:00,68.0,62.7,29.74,ENE,73,0.0,0.0,83,0.00,,,0.12,VWS V14.00,2013-08-18 01:43:00,
2013-08-17 21:48:00,68.0,62.7,29.74,NNW,334,0.0,0.0,83,0.00,,,0.12,VWS V14.00,2013-08-18 01:48:00,
2013-08-17 21:53:00,68.0,62.7,29.74,NE,56,2.2,2.2,83,0.00,,,0.12,VWS V14.00,2013-08-18 01:53:00,
2013-08-17 21:58:00,68.0,62.7,29.74,NW,324,0.0,0.0,83,0.00,,,0.12,VWS V14.00,2013-08-18 01:58:00,
2013-08-17 22:03:00,68.0,63.0,29.74,ESE,109,0.0,0.0,84,0.00,,,0.12,VWS V14.00,2013-08-18 02:03:00,
2013-08-17 22:08:00,68.0,63.0,29.77,ESE,109,0.0,0.0,84,0.00,,,0.12,VWS V14.00,2013-08-18 02:08:00,
2013-08-17 22:13:00,68.0,63.0,29.77,NE,44,0.0,0.0,84,0.00,,,0.12,VWS V14.00,2013-08-18 02:13:00,
2013-08-17 22:18:00,68.0,63.0,29.77,NNE,29,0.0,0.0,84,0.00,,,0.12,VWS V14.00,2013-08-18 02:18:00,
2013-08-17 22:23:00,68.0,63.0,29.77,NE,44,0.0,0.0,84,0.00,,,0.12,VWS V14.00,2013-08-18 02:23:00,
2013-08-17 22:28:00,68.0,63.0,29.74,North,9,0.0,2.2,84,0.00,,,0.12,VWS V14.00,2013-08-18 02:28:00,
2013-08-17 22:33:00,68.0,63.0,29.74,North,6,3.1,3.1,84,0.00,,,0.12,VWS V14.00,2013-08-18 02:33:00,
2013-08-17 22:38:00,68.0,63.3,29.74,NE,38,0.0,0.0,85,0.00,,,0.12,VWS V14.00,2013-08-18 02:38:00,
2013-08-17 22:43:00,68.0,63.3,29.74,North,357,0.0,0.0,85,0.00,,,0.12,VWS V14.00,2013-08-18 02:43:00,
2013-08-17 22:48:00,68.0,63.3,29.74,North,11,4.0,4.0,85,0.00,,,0.12,VWS V14.00,2013-08-18 02:48:00,
2013-08-17 22:53:00,68.0,63.3,29.74,NNW,342,0.0,0.0,85,0.00,,,0.12,VWS V14.00,2013-08-18 02:53:00,
2013-08-17 22:58:00,68.0,63.3,29.74,NNW,342,0.0,0.0,85,0.00,,,0.12,VWS V14.00,2013-08-18 02:58:00,
2013-08-17 23:03:00,68.0,63.7,29.74,NNW,345,0.0,0.0,86,0.00,,,0.12,VWS V14.00,2013-08-18 03:03:00,
2013-08-17 23:08:00,68.0,63.7,29.74,North,357,0.0,0.0,86,0.00,,,0.12,VWS V14.00,2013-08-18 03:08:00,
2013-08-17 23:13:00,68.0,63.7,29.74,NE,44,0.0,0.0,86,0.00,,,0.12,VWS V14.00,2013-08-18 03:13:00,
2013-08-17 23:18:00,68.0,63.7,29.74,East,79,0.0,0.0,86,0.00,,,0.12,VWS V14.00,2013-08-18 03:18:00,
2013-08-17 23:23:00,68.0,63.7,29.74,North,353,0.0,0.0,86,0.00,,,0.12,VWS V14.00,2013-08-18 03:23:00,
2013-08-17 23:28:00,68.0,63.7,29.74,NE,49,0.0,0.0,86,0.00,,,0.12,VWS V14.00,2013-08-18 03:28:00,
2013-08-17 23:33:00,68.0,63.7,29.74,ENE,59,0.0,0.0,86,0.00,,,0.12,VWS V14.00,2013-08-18 03:33:00,
2013-08-17 23:38:00,68.0,64.0,29.74,NNE,17,0.0,0.0,87,0.00,,,0.12,VWS V14.00,2013-08-18 03:38:00,
2013-08-17 23:43:00,68.0,64.0,29.74,NNE,23,0.0,0.0,87,0.00,,,0.12,VWS V14.00,2013-08-18 03:43:00,
2013-08-17 23:48:00,68.0,64.0,29.74,North,5,0.0,0.0,87,0.00,,,0.12,VWS V14.00,2013-08-18 03:48:00,
2013-08-17 23:53:00,68.0,64.0,29.74,NNW,337,0.0,0.0,87,0.00,,,0.12,VWS V14.00,2013-08-18 03:53:00,
2013-08-17 23:58:00,68.0,64.0,29.74,NNW,337,0.0,0.0,87,0.00,,,0.12,VWS V14.00,2013-08-18 03:58:00,